Location: Lombard
(41.8800°N, 88.0080°W)
Time: 00:16:38
(UTC-05:00)

Gurwin Techsat 1B - Pass Details

Date: 23 May 2022
Orbit: 811 x 814 km, 98.8° (Epoch: 27 June)

Event Time Altitude Azimuth Distance (km) Brightness Sun altitude
Rises 02:01:22 0° 33° (NNE) 3,342 13.1 -25.3°
Reaches altitude 10° 02:04:51 10° 57° (ENE) 2,404 11.7 -25.1°
Maximum altitude 02:07:46 15° 90° (E) 2,077 10.9 -24.9°
Enters shadow 02:10:37 10° 123° (ESE) 2,382 10.9 -24.7°
